EW0390 Weather Reports


time (UTC)temp
C
wind
direction
speed
KPH
gust
KPH
rain 1hr
cm
rain 24hr
cm
rain mn
cm
humidity
%
barometer
mb
20260504050442 11 227 0.0 0.0 0.00 0.00 0.00 88 1018.8
20260504045943 11 205 0.0 0.0 0.00 0.00 0.00 88 1018.8
20260504045442 11 205 0.0 0.0 0.00 0.00 0.00 88 1018.8
20260504044942 11 205 0.0 0.0 0.00 0.00 0.00 87 1018.9
20260504044443 11 205 0.0 0.0 0.00 0.00 0.00 88 1018.9
20260504043942 11 205 0.0 0.0 0.00 0.00 0.00 87 1018.9
20260504043442 11 205 0.0 0.0 0.00 0.00 0.00 87 1018.9
20260504042942 11 205 0.0 0.0 0.00 0.00 0.00 87 1019.0
20260504042441 11 205 0.0 0.0 0.00 0.00 0.00 87 1018.8
20260504041940 12 205 0.0 0.0 0.00 0.00 0.00 86 1018.9
20260504041440 12 205 0.0 0.0 0.00 0.00 0.00 87 1018.9
20260504040941 12 205 0.0 0.0 0.00 0.00 0.00 86 1018.8
20260504040440 12 205 0.0 0.0 0.00 0.00 0.00 86 1018.8
20260504035940 12 205 0.0 0.0 0.00 0.00 0.00 86 1018.8
20260504035440 12 205 0.0 0.0 0.00 0.00 0.00 85 1018.9
20260504034940 12 205 0.0 1.6 0.00 0.00 0.00 85 1018.7
20260504034440 12 205 1.6 6.4 0.00 0.00 0.00 85 1018.8
20260504033943 12 323 0.0 0.0 0.00 0.00 0.00 85 1018.9
20260504033939 12 205 0.0 6.4 0.00 0.00 0.00 86 1019.0
20260504032938 12 322 0.0 0.0 0.00 0.00 0.00 85 1018.9
20260504032438 12 322 0.0 0.0 0.00 0.00 0.00 85 1018.8
20260504031938 12 322 0.0 0.0 0.00 0.00 0.00 84 1018.8
20260504031438 13 323 0.0 0.0 0.00 0.00 0.00 84 1018.7
20260504030940 13 323 0.0 0.0 0.00 0.00 0.00 83 1018.7
20260504030936 13 323 0.0 0.0 0.00 0.00 0.00 83 1018.6
20260504030436 13 323 0.0 0.0 0.00 0.00 0.00 83 1018.8
20260504025436 13 322 0.0 0.0 0.00 0.00 0.00 82 1018.7
20260504024935 13 323 0.0 0.0 0.00 0.00 0.00 81 1018.7
20260504024434 13 322 0.0 0.0 0.00 0.00 0.00 81 1018.7
20260504023934 13 322 0.0 0.0 0.00 0.00 0.00 81 1018.7
20260504023432 13 323 0.0 0.0 0.00 0.00 0.00 80 1018.7
20260504022931 13 322 0.0 1.6 0.00 0.00 0.00 79 1018.7
20260504022432 13 322 0.0 1.6 0.00 0.00 0.00 80 1018.7
20260504021932 13 322 0.0 1.6 0.00 0.00 0.00 79 1018.6
20260504021434 14 323 0.0 0.0 0.00 0.00 0.00 78 1018.5
20260504021429 13 323 0.0 0.0 0.00 0.00 0.00 78 1018.6
20260504020428 14 323 0.0 0.0 0.00 0.00 0.00 78 1018.5
20260504015925 14 322 0.0 0.0 0.00 0.00 0.00 77 1018.4
20260504015426 14 323 0.0 0.0 0.00 0.00 0.00 76 1018.3
20260504014926 15 322 0.0 0.0 0.00 0.00 0.00 74 1018.3
20260504014423 15 323 0.0 0.0 0.00 0.00 0.00 73 1018.3
20260504013924 15 322 0.0 0.0 0.00 0.00 0.00 74 1018.3
20260504013424 15 323 0.0 0.0 0.00 0.00 0.00 72 1018.1
20260504012923 15 322 0.0 0.0 0.00 0.00 0.00 72 1018.2
20260504012422 15 322 0.0 0.0 0.00 0.00 0.00 71 1018.1
20260504011922 15 323 0.0 0.0 0.00 0.00 0.00 72 1018.1
20260504011419 16 323 0.0 0.0 0.00 0.00 0.00 69 1018.1
20260504010920 16 322 0.0 0.0 0.00 0.00 0.00 69 1018.1
20260504010420 16 322 0.0 0.0 0.00 0.00 0.00 69 1018.0
20260504005919 16 323 0.0 0.0 0.00 0.00 0.00 66 1017.8
20260504005419 17 323 0.0 0.0 0.00 0.00 0.00 68 1017.8
20260504004926 18 321 0.0 0.0 0.00 0.00 0.00 65 1017.7
20260504004922 17 323 0.0 0.0 0.00 0.00 0.00 67 1017.8
20260504004520 17 323 0.0 0.0 0.00 0.00 0.00 67 1017.7
20260504003413 18 321 0.0 6.4 0.00 0.00 0.00 63 1017.6
20260504002902 18 321 0.0 6.4 0.00 0.00 0.00 60 1017.6
20260504002356 19 321 0.0 6.4 0.00 0.00 0.00 57 1017.7
20260504001855 20 317 0.0 8.0 0.00 0.00 0.00 57 1017.6
20260504001356 20 317 0.0 8.0 0.00 0.00 0.00 56 1017.6
20260504000856 20 317 0.0 1.6 0.00 0.00 0.00 54 1017.6
20260504000355 21 316 0.0 4.8 0.00 0.00 0.00 53 1017.5
20260503235856 21 316 0.0 4.8 0.00 0.00 0.00 51 1017.5
20260503235356 21 316 0.0 0.0 0.00 0.00 0.00 52 1017.5
20260503234855 22 316 0.0 0.0 0.00 0.00 0.00 44 1017.5
20260503234356 22 316 0.0 3.2 0.00 0.00 0.00 42 1017.6
20260503233856 22 316 0.0 3.2 0.00 0.00 0.00 41 1017.6
20260503233355 23 319 1.6 3.2 0.00 0.00 0.00 40 1017.5
20260503232855 23 315 1.6 4.8 0.00 0.00 0.00 38 1017.7
20260503232400 23 288 3.2 8.0 0.00 0.00 0.00 36 1017.7
20260503232356 23 321 3.2 8.0 0.00 0.00 0.00 38 1017.7
20260503231356 24 16 3.2 6.4 0.00 0.00 0.00 36 1017.7
20260503230856 24 301 4.8 11.3 0.00 0.00 0.00 35 1017.6
20260503230359 24 312 4.8 11.3 0.00 0.00 0.00 35 1017.7
20260503225855 24 10 4.8 11.3 0.00 0.00 0.00 36 1017.7
20260503225400 24 359 3.2 8.0 0.00 0.00 0.00 36 1017.8
20260503225355 24 25 4.8 11.3 0.00 0.00 0.00 34 1017.8
20260503224356 24 323 4.8 9.7 0.00 0.00 0.00 34 1017.7
20260503223854 25 311 6.4 16.1 0.00 0.00 0.00 35 1017.7
20260503223353 24 4 4.8 16.1 0.00 0.00 0.00 35 1017.7
20260503222854 25 337 3.2 12.9 0.00 0.00 0.00 34 1017.7
20260503222354 25 354 3.2 12.9 0.00 0.00 0.00 34 1017.8
20260503221853 25 355 3.2 11.3 0.00 0.00 0.00 34 1017.8
20260503221351 24 316 4.8 11.3 0.00 0.00 0.00 36 1017.8
20260503220850 24 39 4.8 11.3 0.00 0.00 0.00 34 1017.8
20260503220349 24 297 3.2 11.3 0.00 0.00 0.00 34 1017.9
20260503215846 25 342 4.8 12.9 0.00 0.00 0.00 34 1017.8
20260503215346 25 38 6.4 12.9 0.00 0.00 0.00 34 1018.0
20260503214845 25 320 3.2 12.9 0.00 0.00 0.00 33 1018.0
20260503214345 25 329 1.6 6.4 0.00 0.00 0.00 33 1018.0
20260503213846 25 211 3.2 8.0 0.00 0.00 0.00 32 1018.0
20260503213344 24 44 6.4 16.1 0.00 0.00 0.00 35 1017.9
20260503212843 24 44 8.0 17.7 0.00 0.00 0.00 32 1018.1
20260503212344 24 358 8.0 17.7 0.00 0.00 0.00 33 1018.1
20260503211843 25 313 4.8 16.1 0.00 0.00 0.00 34 1018.2
20260503211343 25 63 3.2 9.7 0.00 0.00 0.00 35 1018.2
20260503210844 24 319 4.8 16.1 0.00 0.00 0.00 35 1018.2
20260503210341 24 352 8.0 16.1 0.00 0.00 0.00 32 1018.3
20260503205841 24 46 6.4 14.5 0.00 0.00 0.00 32 1018.3
20260503205346 24 17 3.2 11.3 0.00 0.00 0.00 34 1018.4
20260503204839 24 342 4.8 11.3 0.00 0.00 0.00 34 1018.4
20260503204337 24 281 8.0 16.1 0.00 0.00 0.00 33 1018.6
20260503203837 24 16 8.0 19.3 0.00 0.00 0.00 33 1018.6
20260503203337 24 345 6.4 19.3 0.00 0.00 0.00 35 1018.7
20260503202837 24 6 4.8 17.7 0.00 0.00 0.00 35 1018.8
20260503202337 24 94 6.4 17.7 0.00 0.00 0.00 38 1018.7
20260503201837 23 355 9.7 20.9 0.00 0.00 0.00 36 1018.9
20260503201337 24 4 9.7 20.9 0.00 0.00 0.00 34 1019.0
20260503200841 24 278 4.8 14.5 0.00 0.00 0.00 33 1019.2
20260503200837 24 33 6.4 19.3 0.00 0.00 0.00 34 1019.1
20260503200441 24 297 8.0 19.3 0.00 0.00 0.00 34 1019.3
20260503195339 24 49 8.0 19.3 0.00 0.00 0.00 32 1019.4
20260503194841 23 357 8.0 19.3 0.00 0.00 0.00 33 1019.5
20260503194837 23 15 8.0 19.3 0.00 0.00 0.00 34 1019.5
20260503193836 23 27 8.0 19.3 0.00 0.00 0.00 33 1019.7
20260503193335 23 25 8.0 19.3 0.00 0.00 0.00 33 1019.6
20260503192835 23 339 6.4 19.3 0.00 0.00 0.00 34 1019.7
20260503192335 23 125 8.0 17.7 0.00 0.00 0.00 33 1019.7
20260503191835 23 297 11.3 27.4 0.00 0.00 0.00 33 1019.8
20260503191339 23 13 9.7 22.5 0.00 0.00 0.00 34 1019.9
20260503191335 23 313 11.3 27.4 0.00 0.00 0.00 34 1019.9
20260503190335 23 8 8.0 22.5 0.00 0.00 0.00 34 1020.1
20260503185839 23 143 4.8 11.3 0.00 0.00 0.00 35 1020.2
20260503185835 23 272 4.8 12.9 0.00 0.00 0.00 36 1020.1
20260503184835 23 289 4.8 9.7 0.00 0.00 0.00 34 1020.3
20260503184333 23 65 8.0 22.5 0.00 0.00 0.00 34 1020.3
20260503183833 23 28 9.7 22.5 0.00 0.00 0.00 34 1020.4
20260503183333 23 39 9.7 27.4 0.00 0.00 0.00 35 1020.5
20260503182832 23 341 8.0 27.4 0.00 0.00 0.00 33 1020.5
20260503182333 23 6 3.2 17.7 0.00 0.00 0.00 37 1020.6
20260503181833 23 234 4.8 12.9 0.00 0.00 0.00 37 1020.7
20260503181333 23 153 8.0 19.3 0.00 0.00 0.00 34 1020.9
20260503180837 23 35 4.8 12.9 0.00 0.00 0.00 35 1021.1
20260503180833 23 46 8.0 19.3 0.00 0.00 0.00 33 1020.9
20260503175833 23 163 8.0 17.7 0.00 0.00 0.00 34 1021.0
20260503175333 23 37 9.7 19.3 0.00 0.00 0.00 32 1021.2
20260503174833 23 27 8.0 19.3 0.00 0.00 0.00 33 1021.2
20260503174332 23 310 6.4 16.1 0.00 0.00 0.00 36 1021.0
20260503173833 22 310 8.0 16.1 0.00 0.00 0.00 34 1021.2
20260503173333 23 48 6.4 17.7 0.00 0.00 0.00 35 1021.3
20260503172832 23 259 6.4 17.7 0.00 0.00 0.00 36 1021.2
20260503172333 22 212 6.4 17.7 0.00 0.00 0.00 35 1021.3
20260503171833 22 327 4.8 17.7 0.00 0.00 0.00 35 1021.4
20260503171337 22 57 8.0 16.1 0.00 0.00 0.00 34 1021.5
20260503171332 22 39 6.4 16.1 0.00 0.00 0.00 34 1021.4
20260503170333 22 350 6.4 16.1 0.00 0.00 0.00 33 1021.7
20260503150820 21 134 1.6 4.8 0.00 0.00 0.00 52 1022.5
20260503150321 20 236 1.6 4.8 0.00 0.00 0.00 56 1022.5
20260503140312 16 3 1.6 6.4 0.00 0.00 0.00 66 1022.1
20260503131309 13 314 3.2 8.0 0.00 0.03 0.00 72 1021.7
20260503130808 13 319 1.6 6.4 0.00 0.03 0.00 72 1021.6
20260503130313 12 8 1.6 4.8 0.00 0.03 0.00 77 1021.4
20260503130308 13 358 0.0 4.8 0.00 0.03 0.00 74 1021.6
20260503110759 6 286 0.0 0.0 0.00 0.05 0.00 91 1020.9
20260503110258 6 205 0.0 0.0 0.00 0.08 0.00 91 1020.9
20260503100254 7 172 0.0 0.0 0.00 0.13 0.00 90 1020.2
20260503090252 7 337 0.0 3.2 0.00 0.28 0.00 90 1019.8
20260503081249 7 185 0.0 0.0 0.00 0.33 0.00 90 1019.6
20260503080750 7 186 0.0 1.6 0.00 0.36 0.00 89 1019.6
20260503080249 7 186 0.0 4.8 0.00 0.38 0.00 89 1019.5
20260503072743 7 327 0.0 0.0 0.00 0.51 0.00 89 1018.9
20260503072244 7 327 0.0 0.0 0.00 0.53 0.00 89 1019.0
20260503071744 7 327 0.0 0.0 0.00 0.61 0.00 89 1018.9
20260503071243 7 324 0.0 0.0 0.00 0.66 0.00 89 1019.0
20260503070742 7 324 0.0 0.0 0.00 0.69 0.00 89 1019.1
20260503070242 7 324 0.0 0.0 0.00 0.71 0.00 89 1019.1
20260503060239 8 324 0.0 0.0 0.00 0.97 0.00 87 1018.9
20260503054739 9 324 0.0 0.0 0.00 1.04 0.00 86 1018.8
20260503054240 9 324 0.0 0.0 0.00 1.07 0.00 86 1018.9
20260503053735 9 324 0.0 0.0 0.00 1.07 0.00 86 1018.8
20260503053235 9 324 0.0 0.0 0.00 1.07 0.00 85 1018.7
20260503052734 10 324 0.0 0.0 0.00 1.09 0.00 85 1018.8
20260503052237 10 324 0.0 0.0 0.00 1.09 0.00 84 1018.7
20260503052233 10 324 0.0 0.0 0.00 1.09 0.00 84 1018.7